1318291228610,2.34646
1318291288610,2.32395
1318291348610,2.35570
1318291408610,2.34156
1318291468610,2.34800
1318291528610,2.35485
1318291588610,2.32368
1318291648610,2.34586
1318291708610,2.34598
1318291768610,2.34511
1318291828610,2.34949
1318291888610,2.35321
1318291948610,2.34622
1318292008610,2.32155
1318292068610,2.32415
1318292128610,2.32705
1318292188610,2.33771
1318292248610,2.34943
1318292308610,2.32931
1318292368610,2.34494
1318292428610,2.32617
1318292488610,2.34420
1318292548610,2.34164
1318292608610,2.33518
1318292668610,2.34864
1318292728610,2.33557
1318292788610,2.34425
1318292848610,2.33435
1318292908610,2.33061
1318292968610,2.33666
1318293028610,2.34255
1318293088610,2.34038
1318293148610,2.33483
1318293208610,2.34744
1318293268610,2.33821
1318293328610,2.33468
1318293388610,2.32197
1318293448610,2.33710
1318293508610,2.34219
1318293568610,2.34842
1318293628610,2.33989
1318293688610,2.32691
1318293748610,2.33928
1318293808610,2.31708
1318293868610,2.32189
1318293928610,2.32831
1318293988610,2.30957
1318294048610,2.32924
1318294108610,2.31060
1318294168610,2.29707
1318294228610,2.32794
1318294288610,2.33053
1318294348610,2.33429
1318294408610,2.34375
1318294468610,2.33276
1318294528610,2.32316
1318294588610,2.33301
1318294648610,2.30985
1318294708610,2.33296
1318294768610,2.33611
1318294828620,2.33158
1318294888620,2.32354
1318294948620,2.34115
1318295008620,2.32666
1318295068620,2.33200
1318295128620,2.34785
1318295188620,2.36681
1318295248620,2.34361
1318295308620,2.46794
1318295368620,2.33328
1318295428620,2.33586
1318295488620,2.35355
1318295548620,2.35274
1318295608620,2.32734
1318295668620,2.35642
1318295728620,2.35725
1318295788620,2.33400
1318295848620,2.34044
1318295908620,2.33757
1318295968620,2.34300
1318296028620,2.33904
1318296088620,2.32754
1318296148620,2.34838
1318296208620,2.35082
1318296268620,2.32637
1318296328620,2.32564
1318296388620,2.33800
1318296448620,2.32418
1318296508620,2.34140
1318296568620,2.33250
1318296628620,2.35141
1318296688620,2.32499
1318296748620,2.33802
1318296808620,2.32049
1318296868620,2.35676
1318296928620,2.35785
1318296988620,2.34236
1318297048620,2.56809
1318297108620,2.34699
1318297168620,2.34019
1318297228620,2.33807
1318297288620,2.35371
1318297348620,2.34060
1318297408620,2.34078
1318297468620,2.32931
1318297528620,2.23857
1318297588620,2.33348
1318297648620,2.35124
1318297708620,2.36073
1318297768620,2.33877
1318297828620,2.34579
1318297888620,2.35008
1318297948620,2.36407
1318298008620,2.34899
1318298068620,2.33977
1318298128620,2.34654
1318298188620,2.34533
1318298248620,2.34432
1318298308620,2.35237
1318298368620,2.35491
1318298428630,2.38454
1318298488630,2.34228
1318298548630,2.34236
1318298608630,2.34689
1318298668630,2.34723
1318298728630,2.35348
1318298788630,2.35934
1318298848630,2.36236
1318298908630,2.34197
1318298968630,2.35667
1318299028630,2.34551
1318299088630,2.39407
1318299148630,2.35034
1318299208630,2.33575
1318299268630,2.33564
1318299328630,2.33456
1318299388630,2.35006
1318299448630,2.33751
1318299508630,2.34924
1318299568630,2.32425
1318299628630,2.35115
1318299688630,2.38084
1318299748630,2.34902
1318299808630,2.33637
1318299868630,2.34624
1318299928630,2.34485
1318299988630,2.33701
1318300048630,2.32348
1318300108630,2.35457
1318300168630,2.35277
1318300228630,2.34984
1318300288630,2.33909
1318300348630,2.35499
1318300408630,2.34541
1318300468630,2.33566
1318300528630,2.35069
1318300588630,2.34041
1318300648630,2.35195
1318300708630,2.35467
1318300768630,2.34640
1318300828630,2.34434
1318300888630,2.36683
1318300948630,2.35823
1318301008630,2.34547
1318301068630,2.34103
1318301128630,2.34082
1318301188630,2.35563
1318301248630,2.32878
1318301308630,2.34482
1318301368630,2.34519
1318301428630,2.35403
1318301488630,2.34210
1318301548630,2.34715
1318301608630,2.35873
1318301668630,2.35163
1318301728630,2.33806
1318301788630,2.33720
1318301848630,2.35606
1318301908630,2.34239
1318301968630,2.36442
1318302028640,2.35250
1318302088640,2.34166
1318302148640,2.34925
1318302208640,2.36075
1318302268640,2.35347
1318302328640,2.35537
1318302388640,2.34960
1318302448640,2.33457
1318302508640,2.34149
1318302568640,2.35053
1318302628640,2.35132
1318302688640,2.32256
1318302748640,2.35372
1318302808640,2.33474
1318302868640,2.35299
1318302928640,2.32946
1318302988640,2.35246
1318303048640,2.33985
1318303108640,2.34331
1318303168640,2.32488
1318303228640,2.35226
1318303288640,2.34495
1318303348640,2.32801
1318303408640,2.33357
1318303468640,2.35147
1318303528640,2.32910
1318303588640,2.34103
1318303648640,2.35466
1318303708640,2.34150
1318303768640,2.33455
1318303828640,2.34703
1318303888640,2.33116
1318303948640,2.33849
1318304008640,2.33592
1318304068640,2.33569
1318304128640,2.33851
1318304188640,2.34330
1318304248640,2.33429
1318304308640,2.33067
1318304368640,2.33395
1318304428640,2.34293
1318304488640,2.33939
1318304548640,2.34519
1318304608640,2.34039
1318304668640,2.34165
1318304728640,2.33246
1318304788640,2.32315
1318304848640,2.33936
1318304908640,2.32426
1318304968640,2.32760
1318305028640,2.32460
1318305088640,2.31887
1318305148640,2.31424
1318305208640,2.34171
1318305268640,2.33941
1318305328640,2.31818
1318305388640,2.32147
1318305448640,2.32257
1318305508640,2.33261
1318305568640,2.34269
1318305628650,2.31988
1318305688650,2.33756
1318305748650,2.34003
1318305808650,2.32525
1318305868650,2.35227
1318305928650,2.31858
1318305988650,2.33824
1318306048650,2.34946
1318306108650,2.32844
1318306168650,2.34016
1318306228650,2.34698
1318306288650,2.32601
1318306348650,2.32490
1318306408650,2.32870
1318306468650,2.34455
1318306528650,2.33252
1318306588650,2.31667
1318306648650,2.32321
1318306708650,2.34307
1318306768650,2.33260
1318306828650,2.34526
1318306888650,2.33120
1318306948650,2.34786
1318307008650,2.32935
1318307068650,2.32782
1318307128650,2.32160
1318307188650,2.32942
1318307248650,2.32608
1318307308650,2.32445
1318307368650,2.33780
1318307428650,2.33993
1318307488650,2.31529
1318307548650,2.33643
1318307608650,2.33622
1318307668650,2.32469
1318307728650,2.32330
1318307788650,2.32476
1318307848650,2.31423
1318307908650,2.32280
1318307968650,2.33229
1318308028650,2.32978
1318308088650,2.33679
1318308148650,2.31743
1318308208650,2.32003
1318308268650,2.33414
1318308328650,2.33182
1318308388650,2.33426
1318308448650,2.33938
1318308508650,2.33323
1318308568650,2.30686
1318308628650,2.32394
1318308688650,2.32476
1318308748650,2.32495
1318308808650,2.32254
1318308868650,2.32524
1318308928650,2.31198
1318308988650,2.33103
1318309048650,2.31765
1318309108650,2.31612
1318309168650,2.34091
1318309228661,2.33286
1318309288661,2.32232
1318309348661,2.32369
1318309408661,2.32080
1318309468661,2.34620
1318309528661,2.31708
1318309588661,2.33173
1318309648661,2.32672
1318309708661,2.34249
1318309768661,2.32388
1318309828661,2.32295
1318309888661,2.32879
1318309948661,2.32438
1318310008661,2.33538
1318310068661,2.32062
1318310128661,2.32842
1318310188661,2.32436
1318310248661,2.32450
1318310308661,2.32792
1318310368661,2.32786
1318310428661,2.32848
1318310488661,2.33548
1318310548661,2.32222
1318310608661,2.33296
1318310668661,2.32856
1318310728661,2.32284
1318310788661,2.34057
1318310848661,2.32021
1318310908661,2.32651
1318310968661,2.33610
1318311028661,2.33211
1318311088661,2.33117
1318311148661,2.32819
1318311208661,2.32412
1318311268661,2.32681
1318311328661,2.31638
1318311388661,2.33051
1318311448661,2.30733
1318311508661,2.32473
1318311568661,2.33844
1318311628661,2.32541
1318311688661,2.31363
1318311748661,2.34429
1318311808661,2.31575
1318311868661,2.33168
1318311928661,2.33158
1318311988661,2.33337
1318312048661,2.33717
1318312108661,2.32627
1318312168661,2.32178
1318312228661,2.32084
1318312288661,2.31994
1318312348661,2.33112
1318312408661,2.31423
1318312468661,2.32893
1318312528661,2.33862
1318312588661,2.30783
1318312648661,2.31729
1318312708661,2.31993
1318312768661,2.32236
1318312828671,2.32333
1318312888671,2.32549
1318312948671,2.30589
1318313008671,2.32810
1318313068671,2.33166
1318313128671,2.32846
1318313188671,2.31334
1318313248671,2.32640
1318313308671,2.31214
1318313368671,2.30551
1318313428671,2.31403
1318313488671,2.32055
1318313548671,2.32518
1318313608671,2.33002
1318313668671,2.32008
1318313728671,2.31709
1318313788671,2.31478
1318313848671,2.33548
1318313908671,2.32826
1318313968671,2.31973
1318314028671,2.30770
1318314088671,2.29805
1318314148671,2.30821
1318314208671,2.32014
1318314268671,2.30891
1318314328671,2.31393
1318314388671,2.32162
1318314448671,2.31831
1318314508671,2.31628
1318314568671,2.31723
1318314628671,2.32553
1318314688671,2.31837
1318314748671,2.33004
1318314808671,2.32125
1318314868671,2.32805
1318314928671,2.38559
1318314988671,2.34326
1318315048671,2.37741
1318315108671,2.32684
1318315168671,2.32058
1318315228671,2.29061
1318315288671,2.34911
1318315348671,2.33663
1318315408671,2.33463
1318315468671,2.33774
1318315528671,2.31266
1318315588671,2.33793
1318315648671,2.31566
1318315708671,2.33198
1318315768671,2.32300
1318315828671,2.32165
1318315888671,2.32405
1318315948671,2.30941
1318316008671,2.31901
1318316068671,2.33434
1318316128671,2.32293
1318316188671,2.32081
1318316248671,2.30527
1318316308671,2.32019
1318316368671,2.32978
1318316428681,2.31174
1318316488681,2.31784
1318316548681,2.31192
1318316608681,2.33478
1318316668681,2.33487
1318316728681,2.30378
1318316788681,2.30754
1318316848681,2.30954
1318316908681,2.30951
1318316968681,2.31968
1318317028681,2.32250
1318317088681,2.33659
1318317148681,2.32595
1318317208681,2.31422
1318317268681,2.30666
1318317328681,2.32056
1318317388681,2.31141
1318317448681,2.30375
1318317508681,2.31156
1318317568681,2.30826
1318317628681,2.32239
1318317688681,2.32765
1318317748681,2.31502
1318317808681,2.32995
1318317868681,2.31927
1318317928681,2.31117
1318317988681,2.31801
1318318048681,2.32631
1318318108681,2.31186
1318318168681,2.31951
1318318228681,2.31988
1318318288681,2.32317
1318318348681,2.33514
1318318408681,2.31470
1318318468681,2.32243
1318318528681,2.32432
1318318588681,2.30995
1318318648681,2.31748
1318318708681,2.30722
1318318768681,2.31563
1318318828681,2.32535
1318318888681,2.31195
1318318948681,2.33598
1318319008681,2.31573
1318319068681,2.32961
1318319128681,2.32283
1318319188681,2.32759
1318319248681,2.31618
1318319308681,2.32112
1318319368681,2.32900
1318319428681,2.31906
1318319488681,2.32267
1318319548681,2.32921
1318319608681,2.32641
1318319668681,2.33657
1318319728681,2.32839
1318319788681,2.32519
1318319848681,2.33484
1318319908681,2.33269
1318319968681,2.32356
1318320028691,2.31828
1318320088691,2.31618
1318320148691,2.48095
1318320208691,2.32215
1318320268691,2.32270
1318320328691,2.32811
1318320388691,2.30959
1318320448691,2.31942
1318320508691,2.32251
1318320568691,2.32905
1318320628691,2.32479
1318320688691,2.32407
1318320748691,2.32822
1318320808691,2.32830
1318320868691,2.32342
1318320928691,2.31193
1318320988691,2.31654
1318321048691,2.32577
1318321108691,2.32749
1318321168691,2.32773
1318321228691,2.32203
1318321288691,2.32410
1318321348691,2.32968
1318321408691,2.34469
1318321468691,2.31302
1318321528691,2.35440
1318321588691,2.32217
1318321648691,2.31766
1318321708691,2.32138
1318321768691,2.31128
1318321828691,2.33063
1318321888691,2.33217
1318321948691,2.31757
1318322008691,2.32671
1318322068691,2.31487
1318322128691,2.33555
1318322188691,2.31826
1318322248691,2.32085
1318322308691,2.32461
1318322368691,2.31451
1318322428691,2.31155
1318322488691,2.32833
1318322548691,2.31283
1318322608691,2.32588
1318322668691,2.31648
1318322728691,2.32752
1318322788691,2.32418
1318322848691,2.31772
1318322908691,2.31270
1318322968691,2.33661
1318323028691,2.31643
1318323088691,2.33933
1318323148691,2.34169
1318323208691,2.32464
1318323268691,2.31732
1318323328691,2.33199
1318323388691,2.33166
1318323448691,2.32003
1318323508691,2.32755
1318323568691,2.32855
1318323628702,2.32525
1318323688702,2.30861
1318323748702,2.31006
1318323808702,2.33551
1318323868702,2.32682
1318323928702,2.33476
1318323988702,2.33340
1318324048702,2.32580
1318324108702,2.31353
1318324168702,2.31956
1318324228702,2.34034
1318324288702,2.33736
1318324348702,2.32765
1318324408702,2.34743
1318324468702,2.31373
1318324528702,2.31317
1318324588702,2.31314
1318324648702,2.31172
1318324708702,2.31742
1318324768702,2.32646
1318324828702,2.32348
1318324888702,2.31344
1318324948702,2.33732
1318325008702,2.34063
1318325068702,2.33797
1318325128702,2.33479
1318325188702,2.34390
1318325248702,2.31558
1318325308702,2.31018
1318325368702,2.32912
1318325428702,2.31108
1318325488702,2.32788
1318325548702,2.32906
1318325608702,2.32399
1318325668702,2.31956
1318325728702,2.30876
1318325788702,2.32533
1318325848702,2.32710
1318325908702,2.34644
1318325968702,2.33443
1318326028702,2.31115
1318326088702,2.32586
1318326148702,2.32724
1318326208702,2.32531
1318326268702,2.31548
1318326328702,2.33916
1318326388702,2.31314
1318326448702,2.31589
1318326508702,2.34783
1318326568702,2.32591
1318326628702,2.33194
1318326688702,2.31231
1318326748702,2.32182
1318326808702,2.32070
1318326868702,2.33080
1318326928702,2.32923
1318326988702,2.32160
1318327048702,2.31043
1318327108702,2.32647
1318327168702,2.32933
1318327228713,2.31572
1318327288713,2.36986
1318327348713,2.31784
1318327408713,2.32142
1318327468713,2.31828
1318327528713,2.31219
1318327588713,2.33475
1318327648713,2.33237
1318327708713,2.30220
1318327768713,2.30746
1318327828713,2.33599
1318327888713,2.32824
1318327948713,2.31223
1318328008713,2.32565
1318328068713,2.31173
1318328128713,2.31399
1318328188713,2.34260
1318328248713,2.33203
1318328308713,2.32974
1318328368713,2.33262
1318328428713,2.33613
1318328488713,2.34013
1318328548713,2.32855
1318328608713,2.34701
1318328668713,2.32502
1318328728713,2.32440
1318328788713,2.34618
1318328848713,2.33100
1318328908713,2.32886
1318328968713,2.32443
1318329028713,2.31706
1318329088713,2.32474
1318329148713,2.32953
1318329208713,2.34517
1318329268713,2.32602
1318329328713,2.33584
1318329388713,2.32942
1318329448713,2.34257
1318329508713,2.34692
1318329568713,2.35227
1318329628713,2.34114
1318329688713,2.33895
1318329748713,2.31873
1318329808713,2.33784
1318329868713,2.34155
1318329928713,2.32205
1318329988713,2.34731
1318330048713,2.33149
1318330108713,2.35994
1318330168713,2.36612
1318330228713,2.34099
1318330288713,2.34194
1318330348713,2.35384
1318330408713,2.33812
1318330468713,2.33821
1318330528713,2.33889
1318330588713,2.32345
1318330648713,2.34287
1318330708713,2.35264
1318330768713,2.34099
1318330828723,2.35577
1318330888723,2.33705
1318330948723,2.35174
1318331008723,2.34177
1318331068723,2.34169
1318331128723,2.35673
1318331188723,2.35409
1318331248723,2.34906
1318331308723,2.35633
1318331368723,2.34339
1318331428723,2.34015
1318331488723,2.34901
1318331548723,2.33748
1318331608723,2.34480
1318331668723,2.35281
1318331728723,2.34585
1318331788723,2.35012
1318331848723,2.34881
1318331908723,2.34479
1318331968723,2.35807
1318332028723,2.35525
1318332088723,2.33946
1318332148723,2.37330
1318332208723,2.36581
1318332268723,2.32913
1318332328723,2.33786
1318332388723,2.36575
1318332448723,2.35387
1318332508723,2.34734
1318332568723,2.35184
1318332628723,2.36313
1318332688723,2.35518
1318332748723,2.36286
1318332808723,2.36158
1318332868723,2.37269
1318332928723,2.35349
1318332988723,2.42831
1318333048723,2.33031
1318333108723,2.34895
1318333168723,2.35889
1318333228723,2.34962
1318333288723,2.36231
1318333348723,2.35939
1318333408723,2.34891
1318333468723,2.35445
1318333528723,2.34272
1318333588723,2.35902
1318333648723,2.36517
1318333708723,2.36273
1318333768723,2.35947
1318333828723,2.36913
1318333888723,2.36756
1318333948723,2.35778
1318334008723,2.37667
1318334068723,2.35942
1318334128723,2.35799
1318334188723,2.35323
1318334248723,2.35961
1318334308723,2.36767
1318334368723,2.35834
1318334428734,2.37467
1318334488734,2.37110
1318334548734,2.37542
1318334608734,2.36969
1318334668735,2.35722
1318334728735,2.34435
1318334788735,2.36019
1318334848735,2.35003
1318334908734,2.34610
1318334968734,2.36172
1318335028735,2.35726
1318335088735,2.36854
1318335148735,2.37244
1318335208735,2.33936
1318335268735,2.36823
1318335328735,2.36044
1318335388735,2.35572
1318335448735,2.36293
1318335508735,2.36590
1318335568735,2.35842
1318335628734,2.37583
1318335688734,2.35380
1318335748734,2.36880
1318335808734,2.34490
1318335868734,2.35361
1318335928734,2.36039
1318335988734,2.38289
1318336048735,2.37958
1318336108735,2.37439
1318336168735,2.34851
1318336228735,2.34746
1318336288734,2.36882
1318336348735,2.36953
1318336408735,2.36222
1318336468735,2.37177
1318336528735,2.37181
1318336588735,2.36777
1318336648735,2.35855
1318336708735,2.35159
1318336768735,2.35666
1318336828735,2.35087
1318336888735,2.36342
1318336948734,2.36498
1318337008734,2.35861
1318337068734,2.35353
1318337128734,2.33761
1318337188734,2.34277
1318337248734,2.35237
1318337308734,2.36386
1318337368735,2.36354
1318337428735,2.34953
1318337488735,2.35441
1318337548735,2.34012
1318337608734,2.39873
1318337668734,2.36634
1318337728735,2.34730
1318337788735,2.36216
1318337848735,2.35242
1318337908735,2.34813
1318337968735,2.36975
1318338028746,2.34769
1318338088746,2.36096
1318338148746,2.35465
1318338208746,2.35617
1318338268746,2.34659
1318338328746,2.34701
1318338388746,2.35098
1318338448746,2.34804
1318338508746,2.35778
1318338568746,2.34418
1318338628746,2.33586
1318338688746,2.36550
1318338748746,2.35143
1318338808746,2.34852
1318338868746,2.35971
1318338928746,2.34915
1318338988746,2.35486
1318339048746,2.34286
1318339108746,2.33926
1318339168746,2.34274
1318339228746,2.34772
1318339288746,2.36076
1318339348746,2.35795
1318339408746,2.34944
1318339468746,2.35641
1318339528746,2.36719
1318339588746,2.36923
1318339648746,2.35227
1318339708746,2.35182
1318339768746,2.34196
1318339828746,2.34955
1318339888746,2.38957
1318339948746,2.36049
1318340008746,2.34993
1318340068746,2.35097
1318340128746,2.37235
1318340188746,2.37976
1318340248746,2.36479
1318340308746,2.36026
1318340368746,2.35775
1318340428746,2.36213
1318340488746,2.33828
1318340548746,2.35910
1318340608746,2.35801
1318340668746,2.38248
1318340728746,2.35871
1318340788746,2.36045
1318340848746,2.35538
1318340908746,2.36773
1318340968746,2.35853
1318341028746,2.36071
1318341088746,2.35317
1318341148746,2.36086
1318341208746,2.36282
1318341268746,2.36080
1318341328746,2.36919
1318341388746,2.36236
1318341448746,2.35947
1318341508746,2.37971
1318341568746,2.37119
1318341628757,2.37584
1318341688757,2.36777
1318341748757,2.35768
1318341808757,2.35803
1318341868757,2.37179
1318341928757,2.39228
1318341988757,2.35809
1318342048757,2.38937
1318342108757,2.38002
1318342168757,2.36146
1318342228757,2.38016
1318342288757,2.38183
1318342348757,2.37682
1318342408757,2.37386
1318342468757,2.35841
1318342528757,2.36990
1318342588757,2.39259
1318342648757,2.37001
1318342708757,2.39173
1318342768757,2.38959
1318342828757,2.36621
1318342888757,2.38194
1318342948757,2.37412
1318343008757,2.37723
1318343068757,2.37521
1318343128757,2.38164
1318343188757,2.36797
1318343248757,2.38939
1318343308757,2.39195
1318343368757,2.38816
1318343428757,2.37652
1318343488757,2.39043
1318343548757,2.37605
1318343608757,2.36634
1318343668757,2.37745
1318343728757,2.39066
1318343788757,2.38326
1318343848757,2.40124
1318343908757,2.37943
1318343968757,2.39794
1318344028757,2.39286
1318344088757,2.40314
1318344148757,2.38228
1318344208757,2.38754
1318344268757,2.39078
1318344328757,2.40111
1318344388757,2.42312
1318344448757,2.42111
1318344508757,2.40130
1318344568757,2.40031
1318344628757,2.41010
1318344688757,2.39973
1318344748757,2.40474
1318344808757,2.41188
1318344868757,2.41202
1318344928757,2.39408
1318344988757,2.41547
1318345048757,2.41834
1318345108757,2.41112
1318345168757,2.39237
1318345228769,2.40577
1318345288769,2.37622
1318345348769,2.36750
1318345408769,2.38232
1318345468769,2.40289
1318345528769,2.36639
1318345588769,2.37096
1318345648769,2.39409
1318345708769,2.38154
1318345768769,2.38137
1318345828769,2.36905
1318345888769,2.34178
1318346428769,2.38358
1318346488769,2.36990
1318346548769,2.37532
1318346608769,2.38320
1318346668769,2.36148
1318346728769,2.38316
1318346788769,2.38906
1318346848769,2.38500
1318346908769,2.40433
1318346968769,2.39995
1318347028769,2.38745
1318347088769,2.38477
1318347148769,2.39353
1318347208769,2.37979
1318347268769,2.38424
1318347328769,2.36979
1318347388769,2.38182
1318347448769,2.37632
1318347508769,2.39282
1318347568769,2.38322
1318347628769,2.38661
1318347688769,2.37926
1318347748769,2.38529
1318347808769,2.39717
1318347868769,2.39840
1318347928769,2.39072
1318347988769,2.38942
1318348048769,2.39594
1318348108769,2.39006
1318348168769,2.39558
1318348228769,2.42193
1318348288769,2.39598
1318348348769,2.39513
1318348408769,2.39232
1318348468769,2.38863
1318348528769,2.38888
1318348588769,2.39868
1318348648769,2.37714
1318348708769,2.40507
1318348768769,2.40954
1318348828781,2.38193
1318348888781,2.39856
1318348948781,2.39766
1318349008781,2.39085
1318349068781,2.38466
1318349128781,2.38860
1318349188781,2.38620
1318349248781,2.37715
1318349308781,2.38515
1318349368781,2.39227
1318349428781,2.38675
1318349488781,2.39399
1318349548781,2.37382
1318349608781,2.39878
1318349668781,2.41576
1318349728781,2.38739
1318349788781,2.39196
1318349848781,2.39858
1318349908781,2.38714
1318349968781,2.37785
1318350028781,2.40137
1318350088781,2.39897
1318350148781,2.39132
1318350208781,2.40258
1318350268781,2.38451
1318350328781,2.38361
1318350388781,2.40257
1318350448781,2.39530
1318350508781,2.41338
1318350568781,2.43513
1318350628781,2.40089
1318350688781,2.33376
1318350748781,2.40560
1318350808781,2.38773
1318350868781,2.39503
1318350928781,2.40483
1318350988781,2.40536
1318351048781,2.40364
1318351108781,2.40158
1318351168781,2.39593
1318351228781,2.40342
1318351288781,2.39858
1318351348781,2.41005
1318351408781,2.38980
1318351468781,2.40827
1318351528781,2.40172
1318351588781,2.39480
1318351648781,2.40783
1318351708781,2.38777
1318351768781,2.41074
1318351828781,2.39985
1318351888781,2.40866
1318351948781,2.40565
1318352008781,2.38790
1318352068781,2.39698
1318352128781,2.43112
1318352188781,2.40588
1318352248781,2.39841
1318352308781,2.39392
1318352368781,2.37958
1318352428793,2.40799
1318352488793,2.39241
1318352548793,2.38371
1318352608793,2.39477
1318352668793,2.39457
1318352728793,2.39468
1318352788793,2.37991
1318352848793,2.40089
1318352908793,2.38703
1318352968793,2.40105
1318353028793,2.39269
1318353088793,2.40534
1318353148793,2.38401
1318353208793,2.36955
1318353268793,2.38383
1318353328793,2.37604
1318353388793,2.37885
1318353448793,2.38113
1318353508793,2.37511
1318353568793,2.38424
1318353628793,2.36408
1318353688793,2.38967
1318353748793,2.38852
1318353808793,2.38063
1318353868793,2.36895
1318353928793,2.36342
1318353988793,2.37460
1318354048793,2.37748
1318354108793,2.35997
1318354168793,2.37042
1318354228793,2.38022
1318354288793,2.39190
1318354348793,2.38004
1318354408793,2.39694
1318354468793,2.38152
1318354528793,2.37658
1318354588793,2.36681
1318354648793,2.37663
1318354708793,2.38542
1318354768793,2.36633
1318354828793,2.44939
1318354888793,2.36866
1318354948793,2.36027
1318355008793,2.38090
1318355068793,2.36793
1318355128793,2.36177
1318355188793,2.35960
1318355248793,2.37179
1318355308793,2.37290
1318355368793,2.36883
1318355428793,2.38186
1318355488793,2.35705
1318355548793,2.36582
1318355608793,2.38542
1318355668793,2.37360
1318355728793,2.38100
1318355788793,2.37715
1318355848793,2.36580
1318355908793,2.35894
1318355968793,2.36864
1318356028805,2.37415
1318356088805,2.37266
1318356148805,2.37035
1318356208805,2.37006
1318356268805,2.37859
1318356328805,2.35706
1318356388805,2.37144
1318356448805,2.38199
1318356508805,2.38633
1318356568805,2.36942
1318356628805,2.37588
1318356688805,2.36033
1318356748805,2.36981
1318356808805,2.37200
1318356868805,2.37133
1318356928805,2.36581
1318356988805,2.37722
1318357048805,2.36328